�������l�o���
Date,Time,MP-1(��Sv/h),MP-2(��Sv/h),MP-3(��Sv/h),MP-4(��Sv/h),MP-5(��Sv/h),MP-6(��Sv/h),MP-7(��Sv/h),MP-8(��Sv/h),����,����(m/s),���J
2017/10/13,00:00,0.903,1.417,0.930,1.702,1.173,0.500,0.909,0.845,�k,2.6,�L
2017/10/13,00:10,0.902,1.420,0.926,1.702,1.175,0.500,0.908,0.845,�k,2.6,�L
2017/10/13,00:20,0.903,1.419,0.925,1.703,1.174,0.500,0.906,0.843,�k�k��,2.0,�L
2017/10/13,00:30,0.902,1.416,0.927,1.703,1.175,0.500,0.907,0.842,�k��,2.6,�L
2017/10/13,00:40,0.903,1.414,0.925,1.702,1.168,0.499,0.907,0.842,�k�k��,3.1,�L
2017/10/13,00:50,0.901,1.416,0.926,1.703,1.170,0.499,0.905,0.843,�k��,5.0,�L
2017/10/13,01:00,0.901,1.416,0.928,1.702,1.171,0.500,0.907,0.844,�k�k��,4.1,�L
2017/10/13,01:10,0.903,1.418,0.925,1.702,1.171,0.501,0.908,0.842,�k��,4.9,�L
2017/10/13,01:20,0.901,1.408,0.925,1.693,1.164,0.499,0.903,0.843,�k��,3.8,�L
2017/10/13,01:30,0.896,1.402,0.923,1.681,1.159,0.502,0.901,0.841,�k�k��,4.8,�L
2017/10/13,01:40,0.893,1.396,0.922,1.686,1.159,0.500,0.901,0.839,�k�k��,2.5,�L
2017/10/13,01:50,0.894,1.393,0.923,1.679,1.152,0.500,0.899,0.835,�k,5.7,�L
2017/10/13,02:00,0.897,1.399,0.925,1.683,1.158,0.501,0.901,0.837,�k,7.3,�L
2017/10/13,02:10,0.902,1.398,0.926,1.686,1.157,0.501,0.901,0.839,�k,8.0,�L
2017/10/13,02:20,0.899,1.401,0.925,1.688,1.157,0.501,0.900,0.836,�k,7.9,�L
2017/10/13,02:30,0.898,1.397,0.923,1.688,1.157,0.499,0.901,0.836,�k,6.4,�L
2017/10/13,02:40,0.903,1.401,0.925,1.687,1.157,0.500,0.902,0.837,�k,5.6,�L
2017/10/13,02:50,0.902,1.400,0.924,1.689,1.159,0.499,0.902,0.837,�k,5.3,�L
2017/10/13,03:00,0.899,1.402,0.923,1.692,1.159,0.500,0.903,0.837,�k,4.8,�L
2017/10/13,03:10,0.899,1.401,0.923,1.688,1.156,0.499,0.900,0.840,�k,4.8,�L
2017/10/13,03:20,0.900,1.404,0.924,1.690,1.156,0.500,0.902,0.838,�k�k��,5.1,�L
2017/10/13,03:30,0.900,1.403,0.923,1.690,1.154,0.500,0.903,0.839,�k�k��,4.3,�L
2017/10/13,03:40,0.895,1.403,0.922,1.686,1.155,0.499,0.902,0.838,�k,2.8,�L
2017/10/13,03:50,0.899,1.403,0.920,1.685,1.155,0.499,0.900,0.838,�k,3.6,�L
2017/10/13,04:00,0.899,1.402,0.922,1.687,1.154,0.498,0.900,0.837,�k�k��,4.1,�L
2017/10/13,04:10,0.898,1.404,0.923,1.685,1.155,0.499,0.902,0.839,�k�k��,3.9,�L
2017/10/13,04:20,0.898,1.407,0.925,1.686,1.153,0.499,0.903,0.837,�k�k��,3.7,�L
2017/10/13,04:30,0.897,1.407,0.922,1.688,1.153,0.497,0.900,0.837,�k�k��,3.1,�L
2017/10/13,04:40,0.896,1.406,0.920,1.692,1.156,0.499,0.900,0.839,�k�k��,2.5,�L
2017/10/13,04:50,0.898,1.407,0.922,1.691,1.156,0.497,0.901,0.838,�k��,2.6,�L
2017/10/13,05:00,0.897,1.407,0.921,1.688,1.157,0.497,0.902,0.838,�k��,3.5,�L
2017/10/13,05:10,0.896,1.408,0.919,1.690,1.158,0.498,0.902,0.839,�k�k��,4.1,�L
2017/10/13,05:20,0.894,1.403,0.920,1.690,1.157,0.497,0.902,0.838,�k�k��,3.5,�L
2017/10/13,05:30,0.896,1.404,0.920,1.687,1.157,0.498,0.901,0.838,�k��,4.4,�L
2017/10/13,05:40,0.894,1.402,0.920,1.689,1.156,0.499,0.899,0.838,�k��,4.5,�L
2017/10/13,05:50,0.894,1.405,0.919,1.691,1.154,0.498,0.900,0.839,�k�k��,4.5,�L
2017/10/13,06:00,0.896,1.404,0.919,1.690,1.155,0.497,0.900,0.837,�k��,4.0,�L
2017/10/13,06:10,0.895,1.405,0.921,1.686,1.154,0.499,0.901,0.838,�k��,4.5,�L
2017/10/13,06:20,0.894,1.401,0.921,1.687,1.156,0.499,0.899,0.836,�k��,4.5,�L
2017/10/13,06:30,0.896,1.405,0.921,1.689,1.158,0.497,0.901,0.838,�k��,4.4,�L
2017/10/13,06:40,0.896,1.406,0.920,1.691,1.157,0.497,0.899,0.838,�k��,4.4,�L
2017/10/13,06:50,0.895,1.406,0.920,1.689,1.157,0.497,0.901,0.837,�k��,4.3,�L
2017/10/13,07:00,0.897,1.405,0.920,1.691,1.159,0.498,0.900,0.839,�k��,4.8,�L
2017/10/13,07:10,0.901,1.405,0.917,1.688,1.154,0.498,0.901,0.837,�k��,4.0,�L
2017/10/13,07:20,0.897,1.406,0.920,1.692,1.156,0.499,0.902,0.837,�k��,3.7,�L
2017/10/13,07:30,0.894,1.408,0.920,1.691,1.157,0.498,0.901,0.839,�k�k��,3.1,�L
2017/10/13,07:40,0.897,1.404,0.919,1.691,1.157,0.496,0.900,0.839,�k�k��,2.2,�L
2017/10/13,07:50,0.897,1.406,0.920,1.691,1.158,0.496,0.900,0.840,�k�k��,3.3,�L
2017/10/13,08:00,0.896,1.403,0.921,1.695,1.156,0.497,0.903,0.839,�k�k��,4.3,�L
2017/10/13,08:10,0.894,1.407,0.920,1.689,1.155,0.498,0.903,0.837,�k�k��,4.2,�L
2017/10/13,08:20,0.895,1.408,0.920,1.693,1.156,0.499,0.903,0.838,�k�k��,4.1,�L
2017/10/13,08:30,0.896,1.404,0.918,1.692,1.157,0.499,0.901,0.837,�k�k��,3.3,�L
2017/10/13,08:40,0.896,1.404,0.920,1.689,1.158,0.497,0.899,0.838,�k�k��,3.9,�L
2017/10/13,08:50,0.894,1.401,0.916,1.690,1.154,0.497,0.902,0.838,�k�k��,4.3,�L
2017/10/13,09:00,0.894,1.402,0.917,1.688,1.154,0.497,0.902,0.838,�k�k��,4.3,�L
2017/10/13,09:10,0.892,1.398,0.918,1.685,1.149,0.498,0.899,0.838,�k�k��,3.6,�L
2017/10/13,09:20,0.891,1.396,0.918,1.684,1.148,0.495,0.899,0.836,�k��,4.0,�L
2017/10/13,09:30,0.893,1.400,0.916,1.682,1.149,0.497,0.901,0.837,�k��,3.6,�L
2017/10/13,09:40,0.893,1.403,0.915,1.685,1.148,0.497,0.901,0.837,�k��,4.0,�L
2017/10/13,09:50,0.893,1.400,0.917,1.685,1.152,0.495,0.898,0.838,�k��,3.7,�L
2017/10/13,10:00,0.893,1.399,0.917,1.687,1.151,0.495,0.899,0.836,�k��,3.4,�L
2017/10/13,10:10,0.893,1.399,0.918,1.687,1.148,0.495,0.901,0.837,�k�k��,2.9,�L
2017/10/13,10:20,0.894,1.398,0.917,1.687,1.150,0.495,0.900,0.837,�k�k��,3.8,�L
2017/10/13,10:30,0.892,1.398,0.917,1.688,1.149,0.495,0.900,0.837,�k�k��,3.1,�L
2017/10/13,10:40,0.894,1.400,0.916,1.689,1.150,0.494,0.900,0.837,�k�k��,2.3,�L
2017/10/13,10:50,0.894,1.397,0.917,1.685,1.151,0.494,0.901,0.836,�k�k��,2.0,�L
2017/10/13,11:00,0.892,1.397,0.918,1.687,1.149,0.495,0.900,0.836,�k��,2.5,�L
2017/10/13,11:10,0.891,1.396,0.916,1.686,1.148,0.495,0.898,0.834,�k��,3.4,�L
2017/10/13,11:20,0.892,1.397,0.915,1.684,1.147,0.494,0.899,0.834,�k��,2.9,�L
2017/10/13,11:30,0.892,1.394,0.919,1.684,1.147,0.494,0.899,0.837,�k�k��,2.6,�L
2017/10/13,11:40,0.894,1.396,0.917,1.686,1.149,0.496,0.901,0.835,�k�k��,2.3,�L
2017/10/13,11:50,0.893,1.397,0.917,1.684,1.146,0.495,0.900,0.836,�k��,2.6,�L
2017/10/13,12:00,0.893,1.399,0.916,1.688,1.147,0.496,0.899,0.836,�k�k��,2.5,�L
2017/10/13,12:10,0.893,1.399,0.919,1.687,1.148,0.495,0.900,0.835,�k�k��,3.8,�L
2017/10/13,12:20,0.895,1.401,0.918,1.689,1.151,0.496,0.902,0.837,�k�k��,2.3,�L
2017/10/13,12:30,0.896,1.405,0.918,1.693,1.150,0.496,0.901,0.834,�k�k��,2.6,�L
2017/10/13,12:40,0.893,1.402,0.920,1.688,1.152,0.496,0.901,0.837,�k�k��,3.1,�L
2017/10/13,12:50,0.894,1.400,0.918,1.690,1.153,0.496,0.901,0.836,�k�k��,2.5,�L
2017/10/13,13:00,0.895,1.403,0.920,1.689,1.150,0.495,0.900,0.836,�k,2.3,�L
2017/10/13,13:10,0.894,1.399,0.915,1.690,1.149,0.496,0.899,0.834,�k,3.1,�L
2017/10/13,13:20,0.894,1.399,0.919,1.690,1.148,0.495,0.900,0.834,�k��,4.0,�L
2017/10/13,13:30,0.895,1.394,0.918,1.689,1.145,0.497,0.897,0.834,�k��,4.0,�L
2017/10/13,13:40,0.893,1.394,0.915,1.686,1.147,0.494,0.898,0.834,�k��,4.3,�L
2017/10/13,13:50,0.894,1.393,0.916,1.688,1.145,0.495,0.897,0.833,�k��,4.5,�L
2017/10/13,14:00,0.893,1.393,0.914,1.687,1.144,0.497,0.897,0.836,�k�k��,4.0,�L
2017/10/13,14:10,0.892,1.394,0.916,1.684,1.145,0.497,0.900,0.834,�k��,3.1,�L
2017/10/13,14:20,0.893,1.395,0.919,1.685,1.146,0.494,0.897,0.834,�k�k��,3.6,�L
2017/10/13,14:30,0.895,1.402,0.916,1.686,1.149,0.495,0.900,0.837,�k�k��,2.5,�L
2017/10/13,14:40,0.897,1.398,0.915,1.682,1.149,0.494,0.899,0.836,�k�k��,1.7,�L
2017/10/13,14:50,0.895,1.399,0.917,1.687,1.150,0.495,0.898,0.837,�k�k��,2.0,�L
2017/10/13,15:00,0.896,1.402,0.918,1.688,1.149,0.496,0.899,0.836,�k�k��,2.0,�L
2017/10/13,15:10,0.894,1.401,0.915,1.688,1.149,0.495,0.900,0.837,�k,2.2,�L
2017/10/13,15:20,0.895,1.400,0.917,1.687,1.152,0.495,0.900,0.838,�k�k��,2.0,�L
2017/10/13,15:30,0.893,1.401,0.917,1.688,1.148,0.495,0.902,0.838,�k,2.0,�L
2017/10/13,15:40,0.893,1.402,0.918,1.688,1.148,0.494,0.901,0.836,�k�k��,1.9,�L
2017/10/13,15:50,0.892,1.402,0.916,1.688,1.151,0.496,0.902,0.839,�k��,1.5,�L
2017/10/13,16:00,0.896,1.402,0.916,1.690,1.153,0.494,0.901,0.838,�k�k��,1.2,�L
2017/10/13,16:10,0.892,1.402,0.916,1.691,1.151,0.495,0.902,0.838,�k�k��,1.2,��
2017/10/13,16:20,0.896,1.401,0.918,1.691,1.152,0.493,0.903,0.838,�k��,1.2,��
2017/10/13,16:30,0.893,1.405,0.917,1.690,1.155,0.495,0.903,0.838,�k,1.5,��
2017/10/13,16:40,0.893,1.404,0.916,1.689,1.153,0.493,0.903,0.837,�k�k��,0.9,��
2017/10/13,16:50,0.892,1.405,0.916,1.691,1.155,0.493,0.903,0.838,�k�k��,1.5,��
2017/10/13,17:00,0.892,1.407,0.918,1.693,1.154,0.493,0.901,0.838,�k�k��,1.7,��
2017/10/13,17:10,0.894,1.407,0.916,1.691,1.154,0.493,0.902,0.837,�k�k��,1.7,��
2017/10/13,17:20,0.891,1.408,0.915,1.695,1.156,0.493,0.902,0.839,�k�k��,1.5,��
2017/10/13,17:30,0.891,1.409,0.916,1.695,1.153,0.492,0.903,0.838,�k�k��,1.4,��
2017/10/13,17:40,0.892,1.404,0.918,1.695,1.154,0.494,0.905,0.837,�k��,0.9,��
2017/10/13,17:50,0.893,1.410,0.918,1.696,1.157,0.495,0.904,0.839,��,0.9,��
2017/10/13,18:00,0.891,1.407,0.917,1.692,1.156,0.493,0.903,0.839,��,1.2,��
2017/10/13,18:10,0.889,1.407,0.916,1.698,1.155,0.496,0.902,0.837,���쐼,0.8,��
2017/10/13,18:20,0.889,1.408,0.916,1.695,1.158,0.494,0.904,0.839,�쐼,0.8,��
2017/10/13,18:30,0.892,1.409,0.915,1.694,1.157,0.495,0.905,0.838,�쐼,0.9,��
2017/10/13,18:40,0.892,1.410,0.917,1.698,1.159,0.493,0.903,0.840,���쐼,0.6,��
2017/10/13,18:50,0.894,1.409,0.917,1.697,1.158,0.493,0.902,0.839,��쐼,0.6,��
2017/10/13,19:00,0.892,1.408,0.918,1.698,1.157,0.494,0.905,0.838,��쐼,0.9,��
2017/10/13,19:10,0.893,1.411,0.919,1.697,1.158,0.495,0.904,0.838,���쐼,1.1,��
2017/10/13,19:20,0.893,1.410,0.919,1.699,1.156,0.494,0.903,0.838,���쐼,0.9,��
2017/10/13,19:30,0.893,1.410,0.918,1.697,1.159,0.495,0.903,0.838,���k��,0.9,��
2017/10/13,19:40,0.893,1.407,0.917,1.696,1.159,0.495,0.903,0.839,-,CALM,��
2017/10/13,19:50,0.894,1.410,0.916,1.697,1.160,0.494,0.903,0.839,��,0.8,��
2017/10/13,20:00,0.894,1.410,0.917,1.695,1.159,0.496,0.903,0.840,-,CALM,��
2017/10/13,20:10,0.893,1.410,0.918,1.697,1.159,0.495,0.904,0.839,-,CALM,��
2017/10/13,20:20,0.895,1.412,0.919,1.699,1.160,0.494,0.904,0.840,��,0.6,��
2017/10/13,20:30,0.893,1.411,0.919,1.698,1.161,0.495,0.907,0.839,-,CALM,��
2017/10/13,20:40,0.895,1.410,0.920,1.697,1.162,0.494,0.906,0.839,��,0.9,��
2017/10/13,20:50,0.893,1.412,0.920,1.699,1.161,0.495,0.904,0.840,�쐼,0.9,��
2017/10/13,21:00,0.895,1.412,0.921,1.701,1.163,0.497,0.904,0.841,-,CALM,��
2017/10/13,21:10,0.894,1.413,0.919,1.703,1.162,0.496,0.904,0.838,-,CALM,��
2017/10/13,21:20,0.894,1.410,0.918,1.700,1.161,0.495,0.904,0.839,-,CALM,��
2017/10/13,21:30,0.895,1.414,0.918,1.694,1.163,0.495,0.905,0.839,-,CALM,��
2017/10/13,21:40,0.892,1.411,0.920,1.698,1.162,0.494,0.904,0.840,���쐼,1.5,��
2017/10/13,21:50,0.896,1.413,0.918,1.699,1.161,0.495,0.904,0.839,���쐼,1.2,��
2017/10/13,22:00,0.894,1.412,0.919,1.701,1.161,0.496,0.904,0.839,���쐼,1.7,��
2017/10/13,22:10,0.896,1.413,0.918,1.700,1.163,0.495,0.903,0.840,��,1.1,��
2017/10/13,22:20,0.895,1.413,0.920,1.700,1.162,0.495,0.903,0.838,���쐼,1.2,��
2017/10/13,22:30,0.896,1.411,0.919,1.701,1.165,0.495,0.904,0.841,���쐼,0.9,��
2017/10/13,22:40,0.895,1.411,0.919,1.700,1.163,0.495,0.905,0.840,��,1.2,��
2017/10/13,22:50,0.894,1.413,0.917,1.704,1.162,0.497,0.904,0.839,��,0.9,��
2017/10/13,23:00,0.895,1.414,0.921,1.701,1.163,0.496,0.904,0.841,�k��,1.1,��
2017/10/13,23:10,0.894,1.414,0.918,1.701,1.161,0.496,0.905,0.840,�k��,0.8,��
2017/10/13,23:20,0.894,1.413,0.918,1.701,1.163,0.495,0.904,0.839,���k��,0.9,��
2017/10/13,23:30,0.894,1.411,0.921,1.701,1.163,0.496,0.905,0.838,���k��,0.9,��
2017/10/13,23:40,0.893,1.412,0.920,1.703,1.165,0.494,0.907,0.840,�k��,0.8,��
2017/10/13,23:50,0.894,1.413,0.921,1.701,1.164,0.495,0.907,0.840,���k��,0.9,��
